Regional Weather Roundup
Issued by NWS Wilmington, NC

Home | Current Version | Previous Version | Text Only | Print | Product List | Glossary On
Versions: 1 2 3 4 5 6 7 8 9 10 11 12 13 14 15 16 17 18 19 20 21 22 23 24 25 26 27 28 29 30 31 32 33 34 35 36 37 38 39 40 41 42 43 44 45 46 47 48 49 50
000
ASUS42 KILM 261110
RWRILM
RWRILM
REGIONAL HOURLY WEATHER ROUNDUP
NATIONAL WEATHER SERVICE WILMINGTON NC
600 AM EST WED NOV 26 2014

NOTE: "FAIR" INDICATES FEW OR NO CLOUDS BELOW 12,000 FEET WITH NO
SIGNIFICANT WEATHER AND/OR OBSTRUCTIONS TO VISIBILITY.

...............WFO WILMINGTON COUNTY WARNING AREA...............

......COASTAL NC AND SC COUNTIES......

CITY           SKY/WX    TMP DP  RH WIND       PRES   REMARKS
WILMINGTON     CLOUDY    68  66  93 SE5       29.75R
SOUTHPORT      CLOUDY    68  64  85 S13G18    29.74S
N MYRTLE BEACH LGT RAIN  68  65  90 W10       29.73F
MYRTLE BEACH   CLOUDY    59  55  88 W12       29.75R

......INLAND NC AND SC COUNTIES.......

CITY           SKY/WX    TMP DP  RH WIND       PRES   REMARKS
LUMBERTON      LGT RAIN  53  51  93 N15G22    29.79S FOG
ELIZABETHTOWN  HVY RAIN  54  54 100 S5G17     29.80R
WHITEVILLE     HVY RAIN  54  54 100 NW3       29.77R
FLORENCE       RAIN      51  49  92 NW14      29.84R FOG
DARLINGTON     CLOUDY    52  45  76 NW14G21   29.89R

....................REST OF NORTH CAROLINA......................

.........EASTERN NC.........

CITY           SKY/WX    TMP DP  RH WIND       PRES   REMARKS
CAPE HATTERAS  CLOUDY    66  66 100 SE6       29.83R FOG
JACKSONVILLE   CLOUDY    63  61  94 E10G16    29.76F
MOREHEAD CITY  CLOUDY    68  66  93 SE12G18   29.79F
KENANSVILLE    CLOUDY    58  57  98 CALM      29.78S FOG
NEW BERN       CLOUDY    64  61  90 SW13      29.79F FOG
ELIZABETH CITY LGT RAIN  56  51  84 NE10G31   29.87F

.........CENTRAL NC.........

CITY           SKY/WX    TMP DP  RH WIND       PRES   REMARKS
RALEIGH DURHAM RAIN      48  45  89 N10       29.91R VSB 1
ROCKY MOUNT    RAIN      50  48  93 N18G30    29.87R FOG
ROANOKE RAPIDS NOT AVBL
FAYETTEVILLE   LGT RAIN  52  50  93 N18       29.81F FOG
HOFFMAN        RAIN      49  48  97 N18G26    29.86F

.........WESTERN NC.........

CITY           SKY/WX    TMP DP  RH WIND       PRES   REMARKS
CHARLOTTE      LGT RAIN  45  41  87 N7        29.96R
GREENSBORO     RAIN      43  41  93 NE8G18    29.98R FOG
HICKORY        NOT AVBL
BOONE          NOT AVBL
ASHEVILLE      NOT AVBL

.....................REST OF SOUTH CAROLINA.....................

.........EASTERN SC.........

CITY           SKY/WX    TMP DP  RH WIND       PRES   REMARKS
CHARLESTON     LGT RAIN  57  55  93 NW14G25   29.83R
BEAUFORT MCAS  LGT RAIN  52  50  93 NW15      29.88R
HILTON HEAD    NOT AVBL

.........CENTRAL SC.........

CITY           SKY/WX    TMP DP  RH WIND       PRES   REMARKS
COLUMBIA       LGT RAIN  49  46  90 N8        29.91F FOG
ORANGEBURG     RAIN      51  48  89 N14G23    29.90S FOG
SUMTER SHAW    RAIN      48  45  87 N15       29.89R

.........WESTERN SC.........

CITY           SKY/WX    TMP DP  RH WIND       PRES   REMARKS
GREENVILLE     NOT AVBL
ROCK HILL      LGT RAIN  44  43  96 NE7       29.95F
ANDERSON       LGT RAIN  47  46  97 W5        29.97R
CLEMSON        NOT AVBL
GREENWOOD      LGT RAIN  46  45  96 E3        29.96S


...................COASTAL AND OFFSHORE REPORTS..................

................LOCAL PIERS AND NC RESERVE................


STATION/POSITION TIME  SKY/WX   TEMP    WIND        PRES    VSBY
                                AIR SEA DIR/SP/G
                 (UTC)          (F)     (DEG/KT/KT) (MB)    (MI)
JOHNY MRCER PIER 1100            65 62  170/  3/  3 1006.7R
NC RESRV MASNBRO 1000            64      90/  2     1008.0S
OCEAN CREST PIER 1100            68 61  170/ 15/ 17 1006.1R
SPRINGMAID  PIER 1100            66 58  220/ 16/ 18 1006.8S


................COASTAL AND OFFSHORE BUOYS................


STATION/POSITION TIME  SKY/WX   TEMP    WIND        PRES    VSBY
                                AIR SEA DIR/SP/G
                 (UTC)          (F)     (DEG/KT/KT) (MB)    (MI)
DIMNDSHOAL 41025 1100            74     170/ 19/ 23 1009.3S
WVE H/P(F/S)=  5/ 8 WND WVE H/P(F/S)=  3/ 5 SWL H/P/D(F/S/D)=  5/170/ 8

CAPE LOOKOUT     1000            68     130/ 13/ 14 1008.6F
ONSLOW BAY 41036 1100            73 67  170/ 16/ 19 1008.1R
WVE H/P(F/S)=  7/ 5 WND WVE H/P(F/S)=  7/ 5 SWL H/P/D(F/S/D)=  3/120/ 8

5 WRITEBCH 41038 1000            62 59  160/ 10/ 12 1006.6F
MASONBORO  41110 1100               60                N/A
WVE H/P(F/S)=  5/ 6 WND WVE H/P(F/S)=  5/ 6

WILM HARBR 41108 1100               62                N/A
WVE H/P(F/S)=  6/ 6 WND WVE H/P(F/S)=  7/ 6

27WRITEBCH 41037 1000            69 68  180/ 17/ 21 1008.2F
FRYING PAN 41013 1100            76 71  190/ 25/ 33 1007.4F
WVE H/P(F/S)=  7/ 6 WND WVE H/P(F/S)=  7/ 6

SUNST NRSH 41024 1000            64     200/ 12/ 14 1006.7F
CAPRS NRSH 41029 1000            59     300/ 12/ 17   N/A
EDISTO     41004 1100            76 75  180/ 25/ 31 1005.8F
WVE H/P(F/S)= 10/ 7 WND WVE H/P(F/S)= 10/ 7 SWL H/P/D(F/S/D)=  2/17



..........OFFSHORE BUOYS BEYOND 100 NM OFFSHORE...........
.....IN A TRIANGLE---HAT TO BERMUDA TO BAHAMAS TO HAT.....


STATION/POSITION TIME  SKY/WX   TEMP    WIND        PRES    VSBY
                                AIR SEA DIR/SP/G
                 (UTC)          (F)     (DEG/KT/KT) (MB)    (MI)
150E HAT   41001 NOT AVBL
W BERMUDA  41048 0958            75 74  160/ 16/ 19 1020.7
WVE H/P(F/S)=  6/ 8 WND WVE H/P(F/S)=  5/ 7 SWL H/P/D(F/S/D)=  3/120/ 8

ATLANTIC S 41049 1042            79 78  100/ 17/ 19 1022.5S
WVE H/P(F/S)=  7/ 8 WND WVE H/P(F/S)=  7/ 6 SWL H/P/D(F/S/D)=  3/120/ 8

E BAHAMAS  41046 1034            81 81  100/ 16/ 19 1018.5R
WVE H/P(F/S)=  9/ 9 WND WVE H/P(F/S)=  5/ 5 SWL H/P/D(F/S/D)=  7/110/ 9

NE BAHAMAS 41047 1010            78 78  150/ 16/ 19 1019.4R
WVE H/P(F/S)=  7/ 8 WND WVE H/P(F/S)=  7/ 8 SWL H/P/D(F/S/D)=  5/120/ 9

120E CANVRL41010 1100            79 78  190/ 23/ 27 1012.5R
WVE H/P(F/S)=  8/ 7 WND WVE H/P(F/S)=  8/ 7 SWL H/P/D(F/S/D)=  3/130/10


END



USA.gov is the U.S. government's official web portal to all federal, state and local government web resources and services.